Weather History for Chester, SC

Change the Weather History Date:

Friday, February 22, 2013

  Actual Average (KUZA) Record (KUZA)
Temperature  
Mean Temperature 42 °F -  
Max Temperature 48 °F 59 °F 73 °F (2011)
Min Temperature 37 °F 38 °F 11 °F (1963)
Degree Days  
Heating Degree Days 22    
Moisture  
Dew Point 36 °F    
Average Humidity 88    
Maximum Humidity 100    
Minimum Humidity 50    
Precipitation  
Precipitation 0.15 in - - ()
Sea Level Pressure  
Sea Level Pressure 30.20 in    
Wind  
Wind Speed 8 mph (NE)    
Max Wind Speed 12 mph    
Max Gust Speed 20 mph    
Visibility 6 miles    
Events Rain    
Averages and records for this station are not official NWS values.
T = Trace of Precipitation, MM = Missing Value Source: NWS Daily Summary

Daily Weather History Graph

Daily Weather History Graph

Search for Another Location

Airport:

Trip Planner

Search our weather history database for the weather conditions in past years. The results will help you decide how hot, cold, wet, or windy it might be!

Date:

Astronomy

Feb. 22, 2013 Rise Set
Actual Time 7:02 AM EST 6:14 PM EST
Civil Twilight 6:36 AM EST 6:40 PM EST
Nautical Twilight 6:07 AM EST 7:09 PM EST
Astronomical Twilight 5:38 AM EST 7:38 PM EST
Moon 3:29 PM EST (2/22) 4:41 AM EST (2/22)
Length of Visible Light 12h 03m
Length of Day
11h 12m
Waxing Gibbous, 90% of the Moon is Illuminated
Feb 22
Waxing Gibbous
Feb 25
Full
Mar 4
Last Quarter
Mar 11
New
Mar 19
First Quarter

Hourly Weather History & Observations

Time (EST) Temp. Windchill Dew Point Humidity Pressure Visibility Wind Dir Wind Speed Gust Speed Precip Events Conditions
12:15 AM 46.4 °F 42.4 °F 32.0 °F 57% 30.20 in 10.0 mi NE 8.1 mph - N/A Rain Light Rain
12:35 AM 48.2 °F - 32.0 °F 54% 30.20 in 10.0 mi NE 5.8 mph - N/A Rain Light Rain
12:55 AM 48.2 °F - 32.0 °F 54% 30.22 in 10.0 mi NNE 6.9 mph - N/A   Overcast
1:15 AM 48.2 °F - 30.2 °F 50% 30.21 in 10.0 mi ENE 8.1 mph - N/A   Overcast
1:35 AM 46.4 °F 42.4 °F 30.2 °F 53% 30.22 in 10.0 mi NE 8.1 mph - N/A   Overcast
1:55 AM 48.2 °F - 30.2 °F 50% 30.27 in 10.0 mi North 6.9 mph - N/A   Overcast
2:15 AM 46.4 °F 42.9 °F 32.0 °F 57% 30.27 in 10.0 mi NNE 6.9 mph - N/A Rain Light Rain
2:55 AM 44.6 °F 38.8 °F 32.0 °F 61% 30.24 in 10.0 mi NE 11.5 mph - N/A Rain Light Rain
3:15 AM 46.4 °F 41.9 °F 28.4 °F 50% 30.24 in 10.0 mi ENE 9.2 mph - N/A   Overcast
3:35 AM 44.6 °F 39.7 °F 30.2 °F 57% 30.22 in 10.0 mi ENE 9.2 mph 19.6 mph N/A   Overcast
3:55 AM 44.6 °F 40.2 °F 32.0 °F 61% 30.22 in 10.0 mi ENE 8.1 mph - N/A Rain Light Rain
4:15 AM 42.8 °F 39.3 °F 32.0 °F 66% 30.23 in 10.0 mi ENE 5.8 mph - N/A Rain Light Rain
4:35 AM 41.0 °F 35.2 °F 33.8 °F 76% 30.21 in 10.0 mi East 9.2 mph - 0.01 in Rain Light Rain
4:55 AM 41.0 °F 37.1 °F 33.8 °F 76% 30.21 in 10.0 mi East 5.8 mph - 0.02 in Rain Light Rain
5:15 AM 41.0 °F 37.1 °F 33.8 °F 76% 30.23 in 10.0 mi ENE 5.8 mph - N/A Rain Light Rain
5:35 AM 41.0 °F 38.0 °F 35.6 °F 81% 30.23 in 10.0 mi ENE 4.6 mph - N/A   Drizzle
5:55 AM 41.0 °F 38.0 °F 35.6 °F 81% 30.22 in 10.0 mi ENE 4.6 mph - N/A Rain Light Rain
6:15 AM 41.0 °F 38.0 °F 35.6 °F 81% 30.24 in 10.0 mi NNE 4.6 mph - N/A   Overcast
6:35 AM 41.0 °F 38.0 °F 37.4 °F 87% 30.24 in 10.0 mi NNE 4.6 mph - N/A   Overcast
6:55 AM 41.0 °F 36.4 °F 37.4 °F 87% 30.23 in 10.0 mi NNE 6.9 mph - N/A Rain Light Rain
7:15 AM 41.0 °F 36.4 °F 37.4 °F 87% 30.22 in 10.0 mi NE 6.9 mph - N/A   Overcast
7:55 AM 41.0 °F 35.8 °F 37.4 °F 87% 30.24 in 10.0 mi NE 8.1 mph - N/A   Overcast
8:15 AM 41.0 °F 35.8 °F 39.2 °F 93% 30.24 in 10.0 mi NE 8.1 mph - N/A   Overcast
8:35 AM 41.0 °F 36.4 °F 37.4 °F 87% 30.24 in 10.0 mi NNE 6.9 mph - N/A   Light Drizzle
8:55 AM 41.0 °F 35.8 °F 37.4 °F 87% 30.25 in 10.0 mi NE 8.1 mph - N/A   Overcast
9:15 AM 41.0 °F 36.4 °F 37.4 °F 87% 30.25 in 10.0 mi NE 6.9 mph - N/A   Overcast
9:55 AM 41.0 °F 37.1 °F 37.4 °F 87% 30.25 in 10.0 mi ENE 5.8 mph - N/A   Overcast
10:15 AM 41.0 °F 37.1 °F 37.4 °F 87% 30.25 in 10.0 mi NE 5.8 mph - N/A   Overcast
10:35 AM 41.0 °F 35.2 °F 37.4 °F 87% 30.25 in 10.0 mi NNE 9.2 mph - N/A Rain Light Rain
10:55 AM 41.0 °F 35.8 °F 37.4 °F 87% 30.24 in 7.0 mi NNE 8.1 mph - N/A Rain Rain
11:15 AM 39.2 °F 34.2 °F 37.4 °F 93% 30.26 in 5.0 mi North 6.9 mph - N/A   Drizzle
11:35 AM 39.2 °F 33.0 °F 39.2 °F 100% 30.25 in 4.0 mi North 9.2 mph - 0.01 in Rain Rain
11:55 AM 39.2 °F 33.0 °F 39.2 °F 100% 30.24 in 3.0 mi NNE 9.2 mph - 0.02 in Rain Light Rain
12:15 PM 39.2 °F 32.5 °F 39.2 °F 100% 30.23 in 2.5 mi NE 10.4 mph - N/A Rain Rain
12:35 PM 39.2 °F 34.2 °F 39.2 °F 100% 30.22 in 3.0 mi NE 6.9 mph - 0.02 in   Heavy Drizzle
12:55 PM 39.2 °F 34.2 °F 39.2 °F 100% 30.21 in 2.5 mi ENE 6.9 mph - 0.03 in   Drizzle
1:15 PM 37.4 °F 30.3 °F 37.4 °F 100% 30.19 in 3.0 mi NE 10.4 mph - N/A   Drizzle
1:35 PM 37.4 °F 30.8 °F 37.4 °F 100% 30.19 in 2.5 mi NE 9.2 mph - 0.02 in Rain Rain
1:55 PM 37.4 °F 31.4 °F 37.4 °F 100% 30.19 in 2.5 mi NNE 8.1 mph - 0.05 in Rain Rain
2:15 PM 39.2 °F 34.2 °F 39.2 °F 100% 30.19 in 3.0 mi North 6.9 mph - 0.02 in Rain Light Rain
2:35 PM 39.2 °F 32.5 °F 39.2 °F 100% 30.19 in 2.5 mi North 10.4 mph - 0.02 in   Heavy Drizzle
2:55 PM 37.4 °F 32.1 °F 37.4 °F 100% 30.19 in 3.0 mi NNE 6.9 mph - 0.03 in   Drizzle
3:15 PM 37.4 °F 32.1 °F 37.4 °F 100% 30.18 in 4.0 mi NNE 6.9 mph - N/A   Drizzle
3:35 PM 37.4 °F 32.1 °F 37.4 °F 100% 30.19 in 3.0 mi NNE 6.9 mph - N/A Rain Rain
3:55 PM 37.4 °F 30.8 °F 37.4 °F 100% 30.17 in 2.5 mi NNE 9.2 mph - N/A   Light Drizzle
4:15 PM 37.4 °F 30.3 °F 37.4 °F 100% 30.17 in 2.5 mi NNE 10.4 mph - N/A   Light Drizzle
4:35 PM 37.4 °F 30.8 °F 37.4 °F 100% 30.17 in 2.5 mi NNE 9.2 mph - N/A   Light Drizzle
4:55 PM 37.4 °F 32.1 °F 37.4 °F 100% 30.17 in 2.5 mi NE 6.9 mph 10.4 mph N/A   Light Drizzle
5:15 PM 37.4 °F 30.3 °F 37.4 °F 100% 30.17 in 3.0 mi NNE 10.4 mph - N/A   Drizzle
5:35 PM 37.4 °F 31.4 °F 37.4 °F 100% 30.16 in 3.0 mi NNE 8.1 mph - N/A   Drizzle
5:55 PM 37.4 °F 30.3 °F 37.4 °F 100% 30.15 in 3.0 mi NE 10.4 mph - N/A   Drizzle
6:15 PM 37.4 °F 31.4 °F 37.4 °F 100% 30.15 in 4.0 mi NE 8.1 mph - N/A Rain Light Rain
6:55 PM 37.4 °F 32.8 °F 37.4 °F 100% 30.15 in 4.0 mi NNE 5.8 mph - N/A   Overcast
7:15 PM 37.4 °F 31.4 °F 37.4 °F 100% 30.16 in 2.5 mi NNE 8.1 mph - N/A   Overcast
7:35 PM 37.4 °F 30.8 °F 37.4 °F 100% 30.16 in 3.0 mi NE 9.2 mph - N/A   Overcast
7:55 PM 37.4 °F 32.8 °F 37.4 °F 100% 30.16 in 3.0 mi NE 5.8 mph - N/A   Overcast
8:35 PM 37.4 °F 30.8 °F 37.4 °F 100% 30.16 in 2.5 mi NE 9.2 mph - N/A   Overcast
8:55 PM 37.4 °F 31.4 °F 37.4 °F 100% 30.15 in 2.5 mi NE 8.1 mph - N/A   Overcast
9:15 PM 37.4 °F 32.1 °F 37.4 °F 100% 30.17 in 2.5 mi NNE 6.9 mph - N/A   Drizzle
9:35 PM 37.4 °F 30.8 °F 37.4 °F 100% 30.18 in 3.0 mi NNE 9.2 mph - N/A   Drizzle
9:55 PM 37.4 °F 31.4 °F 37.4 °F 100% 30.17 in 4.0 mi NNE 8.1 mph - N/A   Drizzle
10:15 PM 37.4 °F 31.4 °F 37.4 °F 100% 30.16 in 4.0 mi NE 8.1 mph - N/A   Drizzle
10:35 PM 37.4 °F 31.4 °F 37.4 °F 100% 30.14 in 5.0 mi NE 8.1 mph - N/A   Overcast
10:55 PM 37.4 °F 30.8 °F 37.4 °F 100% 30.11 in 5.0 mi ENE 9.2 mph - N/A   Overcast
11:15 PM 37.4 °F 32.8 °F 37.4 °F 100% 30.12 in 5.0 mi ENE 5.8 mph - N/A   Light Drizzle
11:55 PM 37.4 °F 32.8 °F 37.4 °F 100% 30.14 in 7.0 mi North 5.8 mph - N/A   Overcast